TimeCST,TemperatureF,Dew PointF,Humidity,Sea Level PressureIn,VisibilityMPH,Wind Direction,Wind SpeedMPH,Gust SpeedMPH,PrecipitationIn,Events,Conditions,WindDirDegrees,DateUTC
12:53 AM,35.1,28.0,76,30.13,10.0,South,6.9,-,N/A,,Clear,170,2012-11-29 06:53:00
1:53 AM,36.0,28.9,76,30.11,10.0,South,9.2,-,N/A,,Clear,180,2012-11-29 07:53:00
2:53 AM,33.1,28.0,82,30.12,10.0,Calm,Calm,-,N/A,,Clear,0,2012-11-29 08:53:00
3:53 AM,34.0,28.9,82,30.09,10.0,SSE,5.8,-,N/A,,Clear,160,2012-11-29 09:53:00
4:53 AM,37.0,30.0,76,30.07,10.0,South,6.9,-,N/A,,Clear,170,2012-11-29 10:53:00
5:53 AM,37.9,30.9,76,30.06,10.0,South,6.9,-,N/A,,Clear,180,2012-11-29 11:53:00
6:53 AM,34.0,28.9,82,30.06,10.0,SSE,4.6,-,N/A,,Clear,150,2012-11-29 12:53:00
7:53 AM,32.0,28.0,85,30.06,10.0,SE,4.6,-,N/A,,Clear,130,2012-11-29 13:53:00
8:53 AM,36.0,30.9,82,30.06,10.0,SE,3.5,-,N/A,,Clear,130,2012-11-29 14:53:00
9:53 AM,42.8,33.8,70,30.04,10.0,South,4.6,-,N/A,,Clear,170,2012-11-29 15:53:00
10:53 AM,46.0,35.1,66,30.06,10.0,South,8.1,-,N/A,,Clear,190,2012-11-29 16:53:00
11:53 AM,48.9,36.0,61,30.03,10.0,South,6.9,-,N/A,,Clear,180,2012-11-29 17:53:00
12:53 PM,53.1,37.0,55,30.00,10.0,SSW,10.4,-,N/A,,Clear,210,2012-11-29 18:53:00
1:53 PM,55.9,37.9,51,29.97,10.0,SSW,9.2,-,N/A,,Clear,200,2012-11-29 19:53:00
2:53 PM,55.9,37.9,51,29.95,10.0,South,10.4,-,N/A,,Clear,170,2012-11-29 20:53:00
3:53 PM,57.0,37.9,49,29.95,10.0,South,9.2,-,N/A,,Clear,190,2012-11-29 21:53:00
4:53 PM,54.0,37.9,55,29.96,10.0,South,3.5,-,N/A,,Clear,170,2012-11-29 22:53:00
5:53 PM,50.0,37.0,61,29.96,10.0,South,3.5,-,N/A,,Clear,170,2012-11-29 23:53:00
6:53 PM,46.9,37.0,68,29.97,10.0,Calm,Calm,-,N/A,,Clear,0,2012-11-30 00:53:00
7:53 PM,43.0,36.0,76,29.98,10.0,SSE,3.5,-,N/A,,Clear,160,2012-11-30 01:53:00
8:53 PM,39.9,35.1,83,29.99,10.0,Calm,Calm,-,N/A,,Clear,0,2012-11-30 02:53:00
9:53 PM,39.0,34.0,82,29.99,10.0,Calm,Calm,-,N/A,,Clear,0,2012-11-30 03:53:00
10:53 PM,39.0,34.0,82,29.97,10.0,South,3.5,-,N/A,,Clear,190,2012-11-30 04:53:00
11:53 PM,34.0,30.9,89,29.99,10.0,Calm,Calm,-,N/A,,Clear,0,2012-11-30 05:53:00